Location: Newark
(34.1333°N, 7.9667°W)
Time: 22:06:13
(UTC+00:00)

N. Korean satellite - Visible Passes

Search period start: 02 February 2023 00:00
Search period end: 12 February 2023 00:00
Orbit: 407 x 443 km, 97.3° (Epoch: 01 February)

Date Brightness Start Highest point End Pass type
(mag) Time Alt. Az. Time Alt. Az. Time Alt. Az.
02 Feb 6.6 06:11:03 10° N 06:14:08 41° WNW 06:17:13 10° SSW visible
03 Feb 7.8 05:28:33 10° NNE 05:31:35 36° E 05:34:38 10° SSE visible
04 Feb 7.0 06:18:09 10° N 06:21:06 32° WNW 06:24:03 10° SW visible
05 Feb 7.3 05:35:19 10° NNE 05:38:28 46° E 05:41:38 10° S visible
06 Feb 9.8 04:54:38 10° ENE 04:55:33 11° E 04:56:28 10° ESE visible
06 Feb 7.3 06:25:02 10° NNW 06:27:49 26° WNW 06:30:35 10° SW visible
07 Feb 6.8 05:41:51 10° NNE 05:45:05 61° E 05:48:20 10° S visible
08 Feb 9.6 05:00:22 10° ENE 05:02:05 14° E 05:03:48 10° SE visible
08 Feb 7.6 06:31:41 10° NNW 06:34:15 21° WNW 06:36:49 10° SW visible
09 Feb 6.4 05:48:09 10° NNE 05:51:26 78° ESE 05:54:43 10° S visible
10 Feb 9.3 05:06:09 10° NE 05:08:20 16° E 05:10:31 10° SE visible
10 Feb 7.8 06:38:08 10° NNW 06:40:25 18° WNW 06:42:43 10° WSW visible
11 Feb 6.2 05:54:14 10° N 05:57:31 83° WNW 06:00:49 10° SSW visible
